Ely, MN

6:02 AM CDT on April 24, 2018 (GMT -0500)
Ely Municipal

Weather History for KELO - November, 2011

Change the Weather History Date:

Saturday, November 19, 2011

  Actual Average Record
Temperature  
Mean Temperature 24 °F -  
Max Temperature 28 °F 31 °F 53 °F (2012)
Min Temperature 17 °F 18 °F 3 °F (2017)
Degree Days  
Heating Degree Days 42    
Moisture  
Dew Point 20 °F    
Average Humidity 86    
Maximum Humidity 100    
Minimum Humidity 80    
Precipitation  
Precipitation 0.00 in - - ()
Sea Level Pressure  
Sea Level Pressure 29.81 in    
Wind  
Wind Speed 4 mph (NW)    
Max Wind Speed 13 mph    
Max Gust Speed 20 mph    
Visibility 10 miles    
Events      
Averages and records for this station are not official NWS values.
T = Trace of Precipitation, MM = Missing Value Source: NWS Daily Summary

Daily Weather History Graph

Daily Weather History Graph

Search for Another Location

Airport or City:

Astronomy

Nov. 19, 2011 Rise Set
Actual Time 7:18 AM CST 4:26 PM CST
Civil Twilight 6:44 AM CST 5:00 PM CST
Nautical Twilight 6:06 AM CST 5:38 PM CST
Astronomical Twilight 5:29 AM CST 6:14 PM CST
Moon 12:12 AM CST (11/19) 1:08 PM CST (11/19)
Length of Visible Light 10h 15m
Length of Day
9h 07m
Last Quarter, 38% of the Moon is Illuminated
Nov 19
Last Quarter
Nov 25
New
Dec 2
First Quarter
Dec 10
Full
Dec 17
Last Quarter

Hourly Weather History & Observations

Time (CST) Temp. Windchill Dew Point Humidity Pressure Visibility Wind Dir Wind Speed Gust Speed Precip Events Conditions
12:12 AM 24.8 °F - 23.0 °F 93% 29.68 in 10.0 mi Calm Calm - N/A   Overcast
12:33 AM 24.8 °F - 23.0 °F 93% 29.68 in 10.0 mi Calm Calm - N/A   Overcast
12:53 AM 24.8 °F - 24.8 °F 100% 29.68 in 10.0 mi Calm Calm - N/A   Overcast
1:12 AM 24.8 °F - 24.8 °F 100% 29.66 in 10.0 mi Calm Calm - N/A   Overcast
1:33 AM 26.6 °F - 24.8 °F 93% 29.69 in 10.0 mi Calm Calm - N/A   Overcast
1:53 AM 26.6 °F - 24.8 °F 93% 29.71 in 10.0 mi Calm Calm - N/A   Overcast
2:12 AM 26.6 °F 21.2 °F 24.8 °F 93% 29.71 in 10.0 mi WSW 4.6 mph - N/A   Overcast
2:32 AM 28.4 °F 21.2 °F 24.8 °F 86% 29.72 in 10.0 mi West 6.9 mph - N/A   Overcast
2:53 AM 28.4 °F 21.2 °F 24.8 °F 86% 29.72 in 10.0 mi West 6.9 mph 17.3 mph N/A   Overcast
3:12 AM 26.6 °F 16.8 °F 23.0 °F 86% 29.73 in 10.0 mi NW 10.4 mph 18.4 mph N/A   Overcast
3:33 AM 26.6 °F 18.2 °F 21.2 °F 80% 29.73 in 10.0 mi WNW 8.1 mph - N/A   Overcast
3:53 AM 24.8 °F 16.1 °F 21.2 °F 86% 29.74 in 10.0 mi NW 8.1 mph - N/A   Overcast
4:12 AM 24.8 °F 14.6 °F 19.4 °F 80% 29.76 in 10.0 mi West 10.4 mph 18.4 mph N/A   Overcast
4:33 AM 24.8 °F 16.9 °F 19.4 °F 80% 29.76 in 10.0 mi West 6.9 mph - N/A   Overcast
4:53 AM 24.8 °F 16.9 °F 19.4 °F 80% 29.76 in 10.0 mi WNW 6.9 mph - N/A   Overcast
5:12 AM 24.8 °F 19.1 °F 19.4 °F 80% 29.76 in 10.0 mi West 4.6 mph - N/A   Overcast
5:33 AM 24.8 °F 16.1 °F 19.4 °F 80% 29.78 in 10.0 mi West 8.1 mph - N/A   Overcast
5:53 AM 23.0 °F 17.0 °F 19.4 °F 86% 29.78 in 10.0 mi West 4.6 mph - N/A   Overcast
6:12 AM 23.0 °F 17.0 °F 19.4 °F 86% 29.77 in 10.0 mi West 4.6 mph - N/A   Overcast
6:33 AM 23.0 °F 17.0 °F 19.4 °F 86% 29.78 in 10.0 mi WNW 4.6 mph - N/A   Overcast
6:53 AM 23.0 °F 17.0 °F 19.4 °F 86% 29.78 in 10.0 mi WNW 4.6 mph - N/A   Overcast
7:12 AM 23.0 °F 15.8 °F 19.4 °F 86% 29.79 in 10.0 mi WNW 5.8 mph - N/A   Overcast
7:33 AM 23.0 °F 18.4 °F 19.4 °F 86% 29.79 in 10.0 mi WNW 3.5 mph - N/A   Overcast
7:53 AM 23.0 °F 15.8 °F 19.4 °F 86% 29.80 in 10.0 mi WNW 5.8 mph - N/A   Overcast
8:12 AM 23.0 °F 17.0 °F 19.4 °F 86% 29.80 in 10.0 mi WNW 4.6 mph - N/A   Overcast
8:33 AM 23.0 °F 17.0 °F 19.4 °F 86% 29.81 in 10.0 mi WNW 4.6 mph - N/A   Overcast
8:53 AM 24.8 °F 19.1 °F 21.2 °F 86% 29.81 in 10.0 mi NW 4.6 mph - N/A   Overcast
9:12 AM 24.8 °F 19.1 °F 21.2 °F 86% 29.81 in 10.0 mi NW 4.6 mph - N/A   Overcast
9:33 AM 24.8 °F 20.5 °F 21.2 °F 86% 29.81 in 10.0 mi NW 3.5 mph - N/A   Overcast
9:52 AM 24.8 °F 20.5 °F 21.2 °F 86% 29.82 in 10.0 mi NNW 3.5 mph - N/A   Overcast
10:12 AM 24.8 °F 20.5 °F 21.2 °F 86% 29.83 in 10.0 mi NW 3.5 mph - N/A   Overcast
10:33 AM 24.8 °F 19.1 °F 21.2 °F 86% 29.85 in 10.0 mi NNW 4.6 mph - N/A   Overcast
10:53 AM 24.8 °F 19.1 °F 21.2 °F 86% 29.85 in 10.0 mi NNW 4.6 mph - N/A   Overcast
11:12 AM 24.8 °F 15.3 °F 21.2 °F 86% 29.85 in 10.0 mi NW 9.2 mph - N/A   Overcast
11:33 AM 24.8 °F 15.3 °F 21.2 °F 86% 29.85 in 10.0 mi NNW 9.2 mph - N/A   Overcast
11:52 AM 24.8 °F 16.1 °F 19.4 °F 80% 29.86 in 10.0 mi NW 8.1 mph - N/A   Overcast
12:12 PM 24.8 °F 17.9 °F 19.4 °F 80% 29.85 in 10.0 mi NW 5.8 mph - N/A   Overcast
12:33 PM 23.0 °F 13.1 °F 19.4 °F 86% 29.85 in 10.0 mi NW 9.2 mph - N/A   Overcast
12:53 PM 23.0 °F 13.9 °F 19.4 °F 86% 29.87 in 10.0 mi NNW 8.1 mph - N/A   Overcast
1:12 PM 23.0 °F 15.8 °F 17.6 °F 80% 29.87 in 10.0 mi NNW 5.8 mph - N/A   Overcast
1:33 PM 21.2 °F 13.6 °F 17.6 °F 86% 29.86 in 10.0 mi NNW 5.8 mph - N/A   Overcast
1:53 PM 21.2 °F 9.5 °F 17.6 °F 86% 29.84 in 10.0 mi NNW 11.5 mph 19.6 mph N/A   Overcast
2:12 PM 21.2 °F 10.1 °F 17.6 °F 86% 29.85 in 10.0 mi NNW 10.4 mph 17.3 mph N/A   Overcast
2:33 PM 19.4 °F 9.5 °F 17.6 °F 93% 29.85 in 10.0 mi NNW 8.1 mph 17.3 mph N/A   Overcast
2:53 PM 19.4 °F 7.9 °F 17.6 °F 93% 29.86 in 10.0 mi NNW 10.4 mph 16.1 mph N/A   Overcast
3:13 PM 19.4 °F 6.6 °F 15.8 °F 86% 29.87 in 10.0 mi NNW 12.7 mph 16.1 mph N/A   Overcast
3:33 PM 19.4 °F 10.4 °F 17.6 °F 93% 29.88 in 10.0 mi NNW 6.9 mph 18.4 mph N/A   Overcast
3:53 PM 19.4 °F 9.5 °F 15.8 °F 86% 29.89 in 10.0 mi North 8.1 mph - N/A   Overcast
4:12 PM 19.4 °F 9.5 °F 15.8 °F 86% 29.90 in 10.0 mi NNW 8.1 mph 16.1 mph N/A   Overcast
4:33 PM 19.4 °F 8.6 °F 15.8 °F 86% 29.91 in 10.0 mi NNW 9.2 mph 16.1 mph N/A   Overcast
4:53 PM 19.4 °F 14.3 °F 14.0 °F 80% 29.92 in 10.0 mi NNW 3.5 mph - N/A   Overcast
5:12 PM 19.4 °F 10.4 °F 14.0 °F 80% 29.94 in 10.0 mi NNW 6.9 mph - N/A   Overcast
5:33 PM 19.4 °F 12.8 °F 14.0 °F 80% 29.95 in 10.0 mi North 4.6 mph - N/A   Overcast
5:53 PM 19.4 °F 12.8 °F 14.0 °F 80% 29.95 in 10.0 mi North 4.6 mph - N/A   Overcast
6:12 PM 17.6 °F 9.3 °F 14.0 °F 86% 29.95 in 10.0 mi NNW 5.8 mph - N/A   Overcast
6:33 PM 17.6 °F 10.7 °F 14.0 °F 86% 29.95 in 10.0 mi North 4.6 mph - N/A   Overcast
6:53 PM 17.6 °F 8.2 °F 12.2 °F 79% 29.96 in 10.0 mi NNW 6.9 mph - N/A Snow Light Snow
7:12 PM 17.6 °F 8.2 °F 12.2 °F 79% 29.97 in 10.0 mi North 6.9 mph - N/A   Overcast
7:33 PM 17.6 °F 7.3 °F 12.2 °F 79% 29.98 in 10.0 mi NNW 8.1 mph - N/A Snow Light Snow
7:53 PM 17.6 °F 8.2 °F 12.2 °F 79% 29.98 in 10.0 mi NNW 6.9 mph - N/A Snow Light Snow
8:12 PM 17.6 °F 8.2 °F 12.2 °F 79% 29.99 in 10.0 mi NNW 6.9 mph - N/A Snow Light Snow
8:33 PM 17.6 °F 7.3 °F 12.2 °F 79% 30.00 in 10.0 mi NW 8.1 mph - N/A Snow Light Snow
8:53 PM 15.8 °F 5.1 °F 12.2 °F 86% 30.02 in 10.0 mi NNW 8.1 mph 16.1 mph N/A Snow Light Snow
9:13 PM 15.8 °F 5.1 °F 10.4 °F 79% 30.03 in 10.0 mi NNW 8.1 mph 16.1 mph N/A Snow Light Snow
9:33 PM 15.8 °F 5.1 °F 10.4 °F 79% 30.04 in 7.0 mi NNW 8.1 mph - N/A Snow Light Snow
9:52 PM 15.8 °F 4.2 °F 10.4 °F 79% 30.05 in 7.0 mi NW 9.2 mph - N/A Snow Light Snow
10:13 PM 14.0 °F 2.0 °F 10.4 °F 86% 30.05 in 4.0 mi NNW 9.2 mph - N/A Snow Light Snow
10:33 PM 12.2 °F -0.2 °F 8.6 °F 85% 30.06 in 5.0 mi NNW 9.2 mph - N/A Snow Light Snow
10:53 PM 12.2 °F 2.9 °F 8.6 °F 85% 30.07 in 10.0 mi NNW 5.8 mph - N/A Snow Light Snow
11:13 PM 12.2 °F 0.7 °F 6.8 °F 79% 30.09 in 10.0 mi NW 8.1 mph - N/A Snow Light Snow
11:32 PM 10.4 °F -2.4 °F 6.8 °F 85% 30.10 in 10.0 mi NNW 9.2 mph - N/A   Overcast
11:52 PM 10.4 °F 2.2 °F 6.8 °F 85% 30.12 in 10.0 mi NNW 4.6 mph - N/A   Mostly Cloudy